Location: Beuvrequen
(50.8014°N, 1.6652°E)
Time: 12:04:22
(UTC+00:00)

Cosmos 1844 - Pass Details

Date: 31 May 2022
Orbit: 821 x 869 km, 70.9° (Epoch: 03 July)

Event Time Altitude Azimuth Distance (km) Brightness Sun altitude
Rises 23:14:38 0° 318° (NW) 3,466 7.9 -16.7°
Reaches altitude 10° 23:18:02 10° 299° (WNW) 2,522 6.7 -16.8°
Maximum altitude 23:21:27 16° 262° (W) 2,100 5.8 -16.9°
Enters shadow 23:24:48 10° 226° (SW) 2,492 5.8 -16.9°
